User: anonymous   Login
Location: Bellerive
(46.9237°N, 7.0223°E)
Time: 02:44:10
(UTC+00:00)
Language:

STARLINK-1216 - Orbit

View from above orbital plane
View from above orbital plane
View from above satellite
View from above satellite

Ground track
Ground track

The orbit data is extracted from the following two-line orbital elements,

1 45185U 20012H   20192.58334491 -.00031909  00000-0 -21805-2 0  9991
2 45185  53.0010 330.7082 0001405 118.3535 293.6624 15.05583041 22494
Epoch (UTC): 10 July 2020 14:00:01
Eccentricity: 0.0001405
inclination: 53.0010°
perigee height: 549 km
apogee height: 550 km
right ascension of ascending node: 330.7082°
argument of perigee: 118.3535°
revolutions per day: 15.05583041
mean anomaly at epoch: 293.6624°
orbit number at epoch: 2249

The dashed part of the orbit path shows where the satellite is in the earth's shadow,  

DLR